Latest Weather Observations for Tuggeranong

IDN60901

Issued at 1:41 pm EDT Monday 22 December 2014 (issued every 10 minutes, with the page automatically refreshed every 10 minutes)

About weather observations | Map of Canberra area stations | Latest observations for Canberra area | Other Formats
Station Details ID: 070339 Name: TUGGERANONG (ISABELLA PLAINS) AWS Lat: -35.42 Lon: 149.09 Height: 586.7 m
Data from the previous 72 hours. | See also: Recent months at Tuggeranong
Date/Time
EDT
Tmp

°C
App
Tmp
°C
Dew
Point
°C
Rel
Hum
%
Delta-T

°C
Wind Press
QNH
hPa
Press
MSL
hPa
Rain
since
9 am
mm
Dir
 
Spd
km/h
Gust
km/h
Spd
kts
Gust
kts
22/01:30pm 30.5 28.6 11.9 31 11.1 NW 13 26 7 14 1014.5 1012.1 0.0
22/01:00pm 30.3 29.2 14.4 38 9.9 NNW 13 22 7 12 1015.4 1013.1 0.0
22/12:30pm 29.2 28.7 15.0 42 8.9 N 11 22 6 12 1016.1 1013.7 0.0
22/12:00pm 28.3 26.7 13.8 41 8.9 NW 15 22 8 12 1016.8 1014.5 0.0
22/11:30am 27.6 26.1 14.3 44 8.2 NNW 15 24 8 13 1017.0 1014.7 0.0
22/11:00am 26.9 25.0 14.3 46 7.7 NNW 17 24 9 13 1017.1 1014.8 0.0
22/10:30am 26.1 25.4 14.2 48 7.2 NNW 11 17 6 9 1017.3 1015.0 0.0
22/10:00am 25.3 26.0 15.6 55 6.0 NNW 6 13 3 7 1017.6 1015.2 0.0
22/09:30am 23.4 23.9 14.9 59 5.2 W 6 9 3 5 1017.7 1015.3 0.0
22/09:00am 22.4 23.0 15.3 64 4.3 NW 6 9 3 5 1017.9 1015.6 0.0
22/08:30am 20.5 20.9 14.8 70 3.4 SSW 6 7 3 4 1017.6 1015.2 0.0
22/08:00am 18.9 20.2 14.0 73 2.9 CALM 0 0 0 0 1017.5 1015.1 0.0
22/07:30am 17.5 18.0 14.0 80 2.0 W 4 6 2 3 1017.2 1014.9 0.0
22/07:00am 16.6 17.6 13.3 81 1.9 CALM 0 0 0 0 1017.0 1014.7 0.0
22/06:30am 15.5 16.4 13.0 85 1.4 CALM 0 0 0 0 1016.9 1014.6 0.0
22/05:30am 14.8 15.6 12.5 86 1.3 CALM 0 0 0 0 1016.5 1014.2 0.0
22/05:00am 14.5 15.0 11.6 83 1.6 CALM 0 0 0 0 1016.2 1013.8 0.0
22/04:30am 15.1 14.6 12.1 82 1.7 WNW 6 7 3 4 1016.1 1013.7 0.0
22/04:00am 15.4 16.1 12.3 82 1.7 CALM 0 0 0 0 1016.0 1013.6 0.0
22/03:00am 16.8 17.9 13.5 81 1.9 CALM 0 0 0 0 1016.3 1013.9 0.0
22/02:30am 17.4 18.5 14.5 83 1.7 SSW 2 7 1 4 1016.5 1014.2 0.0
22/02:00am 18.0 19.7 15.1 83 1.7 CALM 0 0 0 0 1016.6 1014.3 0.0
22/01:30am 18.7 20.1 15.4 81 2.0 E 2 7 1 4 1016.7 1014.4 0.0
22/01:00am 19.4 21.2 15.5 78 2.4 CALM 0 0 0 0 1016.8 1014.5 0.0
22/12:30am 19.6 21.2 14.8 74 2.9 CALM 0 0 0 0 1016.9 1014.6 0.0
 
Date/Time
EDT
Tmp

°C
App
Tmp
°C
Dew
Point
°C
Rel
Hum
%
Delta-T

°C
Wind Press
QNH
hPa
Press
MSL
hPa
Rain
since
9 am
mm
Dir
 
Spd
km/h
Gust
km/h
Spd
kts
Gust
kts
21/11:30pm 21.1 21.5 15.4 70 3.5 SW 7 11 4 6 1016.9 1014.6 0.0
21/11:00pm 21.9 21.5 15.3 66 4.0 ESE 11 17 6 9 1016.6 1014.3 0.0
21/10:30pm 22.2 21.4 15.1 64 4.3 E 13 19 7 10 1016.4 1014.1 0.0
21/10:00pm 21.2 19.3 9.1 46 6.6 E 9 13 5 7 1016.3 1013.9 0.0
21/09:30pm 21.3 19.9 8.9 45 6.8 E 6 9 3 5 1015.8 1013.4 0.0
21/08:30pm 24.2 23.6 7.4 34 9.1 CALM 0 0 0 0 1015.3 1013.0 0.0
21/08:00pm 26.3 24.4 7.4 30 10.3 WNW 7 13 4 7 1015.2 1012.9 0.0
21/07:30pm 28.0 25.0 6.2 25 11.8 NW 11 15 6 8 1014.9 1012.6 0.0
21/07:00pm 28.6 25.6 6.1 24 12.2 NW 11 19 6 10 1014.7 1012.3 0.0
21/06:30pm 28.9 24.9 5.1 22 12.7 NW 15 22 8 12 1014.6 1012.2 0.0
21/05:30pm 29.9 26.1 5.9 22 13.0 W 15 24 8 13 1014.3 1011.9 0.0
21/05:00pm 29.7 25.1 6.4 23 12.7 W 20 32 11 17 1014.6 1012.2 0.0
21/04:30pm 29.8 27.8 7.1 24 12.5 N 7 22 4 12 1014.8 1012.4 0.0
21/04:00pm 29.8 26.5 8.2 26 12.2 NW 15 28 8 15 1014.9 1012.6 0.0
21/03:30pm 29.2 25.8 7.7 26 12.0 NNW 15 26 8 14 1015.1 1012.8 0.0
21/03:00pm 29.1 26.3 8.7 28 11.5 WNW 13 20 7 11 1015.5 1013.2 0.0
21/02:30pm 28.0 25.4 9.3 31 10.6 NNW 13 26 7 14 1015.7 1013.3 0.0
21/02:00pm 27.7 25.5 9.5 32 10.4 WNW 11 19 6 10 1016.1 1013.7 0.0
21/01:30pm 27.2 24.6 9.5 33 10.0 NNW 13 24 7 13 1016.4 1014.1 0.0
21/01:00pm 27.0 24.1 9.8 34 9.8 NW 15 24 8 13 1016.8 1014.5 0.0
21/12:30pm 26.2 23.5 10.4 37 9.1 N 15 24 8 13 1017.1 1014.8 0.0
21/12:00pm 25.1 22.9 10.9 41 8.2 NNW 13 22 7 12 1017.7 1015.3 0.0
21/11:30am 24.1 22.6 11.8 46 7.2 NW 11 20 6 11 1018.2 1015.9 0.0
21/11:00am 23.4 22.0 12.1 49 6.6 NNW 11 17 6 9 1018.6 1016.3 0.0
21/10:30am 22.0 21.1 12.5 54 5.5 N 9 15 5 8 1018.6 1016.3 0.0
21/10:00am 20.4 19.7 11.9 58 4.9 SE 7 11 4 6 1018.8 1016.5 0.0
21/09:30am 19.4 19.0 12.4 64 4.0 SE 6 11 3 6 1018.8 1016.5 0.0
21/09:00am 17.9 17.0 11.2 65 3.7 WNW 7 11 4 6 1019.1 1016.8 0.0
21/08:30am 17.8 17.1 11.4 66 3.6 S 6 9 3 5 1019.0 1016.7 0.0
21/08:00am 16.9 16.3 11.6 71 3.0 SSW 6 9 3 5 1019.0 1016.7 0.0
21/07:30am 16.4 15.2 11.6 73 2.7 E 9 13 5 7 1018.9 1016.6 0.0
21/07:00am 15.6 15.3 11.6 77 2.2 ESE 4 7 2 4 1018.7 1016.4 0.0
21/06:30am 13.9 14.3 11.4 85 1.4 CALM 0 0 0 0 1018.6 1016.3 0.0
21/06:00am 13.0 12.4 10.4 84 1.4 E 4 6 2 3 1018.5 1016.2 0.0
21/05:30am 13.9 13.1 11.1 83 1.5 ENE 6 9 3 5 1018.4 1016.1 0.0
21/05:00am 14.2 13.4 11.0 81 1.7 ESE 6 7 3 4 1018.3 1016.0 0.0
21/04:30am 14.5 13.5 11.1 80 1.9 E 7 9 4 5 1018.2 1015.9 0.0
21/04:00am 14.9 13.6 11.3 79 2.0 E 9 13 5 7 1018.3 1016.0 0.0
21/03:30am 15.1 13.4 11.3 78 2.1 ENE 11 13 6 7 1018.3 1016.0 0.0
21/03:00am 15.5 13.9 11.5 77 2.2 NE 11 17 6 9 1018.5 1016.2 0.0
21/02:30am 15.7 14.6 11.9 78 2.1 NE 9 15 5 8 1018.6 1016.3 0.0
21/02:00am 15.7 14.6 11.9 78 2.1 NNE 9 13 5 7 1018.8 1016.5 0.0
21/01:30am 15.5 14.0 11.9 79 2.0 NE 11 15 6 8 1018.8 1016.5 0.0
21/01:00am 15.6 14.5 11.8 78 2.1 NNE 9 13 5 7 1019.0 1016.7 0.0
21/12:30am 16.4 15.7 12.0 75 2.5 NE 7 9 4 5 1019.0 1016.7 0.0
21/12:00am 16.7 16.0 12.0 74 2.6 NE 7 9 4 5 1019.1 1016.8 0.0
 
Date/Time
EDT
Tmp

°C
App
Tmp
°C
Dew
Point
°C
Rel
Hum
%
Delta-T

°C
Wind Press
QNH
hPa
Press
MSL
hPa
Rain
since
9 am
mm
Dir
 
Spd
km/h
Gust
km/h
Spd
kts
Gust
kts
20/11:30pm 17.2 15.8 12.1 72 2.9 NE 11 15 6 8 1019.0 1016.7 0.0
20/11:00pm 17.6 16.2 12.3 71 3.0 NE 11 17 6 9 1018.9 1016.6 0.0
20/10:30pm 17.8 17.3 12.5 71 3.0 ENE 7 9 4 5 1018.8 1016.5 0.0
20/10:00pm 18.0 17.4 12.2 69 3.3 ESE 7 9 4 5 1018.5 1016.2 0.0
20/09:30pm 18.7 18.7 12.5 67 3.6 ENE 4 9 2 5 1017.9 1015.6 0.0
20/09:00pm 19.4 17.4 12.7 65 3.9 ENE 15 22 8 12 1017.1 1014.8 0.0
20/08:30pm 20.4 18.1 12.9 62 4.4 E 17 28 9 15 1016.6 1014.3 0.0
20/08:00pm 21.5 18.8 12.9 58 5.0 E 19 32 10 17 1016.2 1013.8 0.0
20/07:30pm 22.4 19.8 13.2 56 5.4 ENE 19 28 10 15 1015.8 1013.4 0.0
20/07:00pm 25.1 24.4 10.2 39 8.5 NNW 4 15 2 8 1015.1 1012.8 0.0
20/06:30pm 26.0 24.6 8.9 34 9.6 NE 6 11 3 6 1014.6 1012.2 0.0
20/06:00pm 25.6 23.2 8.6 34 9.4 NE 11 17 6 9 1014.4 1012.0 0.0
20/05:30pm 25.3 23.7 7.9 33 9.5 NNW 6 13 3 7 1014.5 1012.1 0.0
20/05:00pm 26.2 24.8 8.7 33 9.8 WSW 6 11 3 6 1014.4 1012.0 0.0
20/04:30pm 25.4 23.8 8.0 33 9.5 ENE 6 11 3 6 1014.6 1012.2 0.0
20/04:00pm 24.8 24.0 8.3 35 9.1 ENE 2 6 1 3 1014.9 1012.6 0.0
20/03:30pm 24.7 22.6 8.2 35 9.0 NNW 9 17 5 9 1015.1 1012.8 0.0
20/03:00pm 25.5 23.0 8.1 33 9.6 NNW 11 20 6 11 1015.3 1013.0 0.0
20/02:30pm 25.2 22.9 9.1 36 9.0 WNW 11 19 6 10 1015.8 1013.4 0.0
20/02:00pm 24.9 22.8 9.6 38 8.6 NNW 11 19 6 10 1016.0 1013.6 0.0
20/01:30pm 23.4 21.9 9.0 40 8.0 SSE 7 20 4 11 1016.3 1013.9 0.0
20/01:00pm 22.3 20.4 9.1 43 7.3 NE 9 17 5 9 1016.8 1014.5 0.0
20/12:30pm 21.4 19.6 9.3 46 6.6 NNE 9 19 5 10 1017.2 1014.9 0.0
20/12:00pm 20.5 18.0 8.2 45 6.6 NNW 11 20 6 11 1017.6 1015.2 0.0
20/11:30am 19.6 18.1 9.2 51 5.6 NNW 7 15 4 8 1017.9 1015.6 0.0
20/11:00am 18.7 16.0 8.9 53 5.3 WNW 13 20 7 11 1018.2 1015.9 0.0
20/10:30am 17.8 16.2 8.9 56 4.8 NW 7 13 4 7 1018.3 1016.0 0.0
20/10:00am 16.6 14.6 8.8 60 4.1 N 9 13 5 7 1018.6 1016.3 0.0
20/09:30am 15.7 13.5 8.0 60 4.0 NNE 9 13 5 7 1018.9 1016.6 0.0
20/09:00am 14.4 12.3 8.4 67 3.1 ENE 9 13 5 7 1019.0 1016.7 0.0
20/08:30am 14.3 12.1 7.8 65 3.3 NE 9 11 5 6 1018.8 1016.5 0.0
20/08:00am 14.1 12.1 8.5 69 2.9 NE 9 13 5 7 1018.7 1016.4 0.0
20/07:30am 13.6 11.5 8.4 71 2.7 NNE 9 13 5 7 1018.5 1016.2 0.0
20/07:00am 13.3 11.3 8.6 73 2.4 NE 9 11 5 6 1018.2 1015.9 0.0
20/06:30am 13.2 11.5 8.5 73 2.4 NE 7 11 4 6 1018.1 1015.8 0.0
20/06:00am 13.1 11.1 8.6 74 2.3 ENE 9 13 5 7 1018.0 1015.7 0.0
20/05:30am 13.0 11.0 8.5 74 2.3 NE 9 13 5 7 1017.9 1015.6 0.0
20/05:00am 13.0 11.4 8.7 75 2.2 NNE 7 9 4 5 1017.7 1015.3 0.0
20/04:30am 13.0 11.0 8.7 75 2.2 NE 9 11 5 6 1017.6 1015.2 0.0
20/04:00am 13.2 11.2 8.7 74 2.3 NE 9 13 5 7 1017.7 1015.3 0.0
20/03:30am 13.3 11.7 8.8 74 2.3 ENE 7 13 4 7 1017.8 1015.4 0.0
20/03:00am 13.2 11.6 8.9 75 2.2 ENE 7 13 4 7 1018.0 1015.7 0.0
20/02:30am 13.3 11.8 9.0 75 2.2 ENE 7 9 4 5 1018.1 1015.8 0.0
20/02:00am 13.3 11.7 8.8 74 2.3 NNE 7 11 4 6 1018.3 1016.0 0.0
20/01:30am 13.2 11.6 8.9 75 2.2 ENE 7 9 4 5 1018.6 1016.3 0.0
20/01:00am 13.2 11.2 8.7 74 2.3 NNE 9 17 5 9 1018.7 1016.4 0.0
20/12:30am 13.3 12.2 8.6 73 2.4 ENE 4 7 2 4 1018.9 1016.6 0.0
20/12:00am 13.2 12.5 8.5 73 2.4 NE 2 7 1 4 1018.9 1016.6 0.0
 
Date/Time
EDT
Tmp

°C
App
Tmp
°C
Dew
Point
°C
Rel
Hum
%
Delta-T

°C
Wind Press
QNH
hPa
Press
MSL
hPa
Rain
since
9 am
mm
Dir
 
Spd
km/h
Gust
km/h
Spd
kts
Gust
kts
19/11:30pm 13.2 11.7 8.5 73 2.4 NE 6 9 3 5 1018.9 1016.6 0.0
19/11:00pm 13.2 11.2 8.7 74 2.3 ENE 9 13 5 7 1019.0 1016.7 0.0
19/10:30pm 13.5 11.1 8.8 73 2.4 ENE 11 19 6 10 1018.8 1016.5 0.0
19/10:00pm 13.8 11.0 8.6 71 2.7 ENE 13 20 7 11 1018.4 1016.1 0.0
19/09:30pm 14.2 11.1 8.8 70 2.8 ENE 15 24 8 13 1017.8 1015.4 0.0
19/09:00pm 14.6 10.7 8.8 68 3.0 E 19 28 10 15 1017.1 1014.8 0.0
19/08:30pm 15.4 11.4 8.9 65 3.4 E 20 33 11 18 1016.6 1014.3 0.0
19/08:00pm 16.8 12.9 8.8 59 4.2 E 19 35 10 19 1015.8 1013.4 0.0
19/07:30pm 18.3 14.2 8.8 54 5.1 E 20 32 11 17 1014.8 1012.4 0.0
19/07:00pm 19.7 16.0 9.3 51 5.7 E 19 30 10 16 1013.6 1011.3 0.0
19/06:30pm 23.4 19.7 4.4 29 9.7 WNW 13 22 7 12 1012.8 1010.4 0.0
19/06:00pm 24.6 20.3 5.4 29 10.0 WNW 17 28 9 15 1012.1 1009.7 0.0
19/05:30pm 24.4 20.1 5.2 29 10.0 NNW 17 32 9 17 1011.8 1009.5 0.0
19/05:00pm 23.2 18.8 4.7 30 9.5 NNW 17 26 9 14 1011.6 1009.2 0.0
19/04:30pm 23.4 19.4 4.9 30 9.5 NW 15 22 8 12 1011.6 1009.2 0.0
19/04:00pm 24.0 19.7 5.4 30 9.7 NW 17 30 9 16 1011.5 1009.1 0.0
19/03:30pm 24.9 20.6 5.2 28 10.3 W 17 28 9 15 1011.6 1009.2 0.0
19/03:00pm 23.8 20.0 3.7 27 10.1 NNE 13 24 7 13 1011.7 1009.3 0.0
19/02:30pm 24.0 20.5 3.3 26 10.4 N 11 17 6 9 1011.8 1009.5 0.0
19/02:00pm 23.0 19.0 3.0 27 9.9 NNE 13 24 7 13 1011.9 1009.6 0.0

Latest Capital City Observations: Canberra | Sydney | Melbourne | Brisbane | Adelaide | Perth | Hobart | Darwin

Other Formats:

Comma delimited format used in spreadsheet applications
http://www.bom.gov.au/fwo/IDN60903/IDN60903.94925.axf

JavaScript Object Notation format (JSON) in row-major order
http://www.bom.gov.au/fwo/IDN60903/IDN60903.94925.json